User: anonymous   Login
Location: Wayah Bald
(35.1806°N, 83.5603°W)
Time: 05:37:39
(UTC-04:00)
Language:

Meteor 1-27 Rocket - Orbit

View from above orbital plane
View from above orbital plane
View from above satellite
View from above satellite

Ground track
Ground track

The orbit data is extracted from the following two-line orbital elements,

1 09904U 77024B   14293.66838699  .00000085  00000-0  42948-4 0   946
2 09904 081.2630 347.5766 0055310 179.4734 298.3305 14.06745078926347
Epoch (UTC): 20 October 2014 16:02:28
Eccentricity: 0.0055310
inclination: 81.2630°
perigee height: 830 km
apogee height: 910 km
right ascension of ascending node: 347.5766°
argument of perigee: 179.4734°
revolutions per day: 14.06745078
mean anomaly at epoch: 298.3305°
orbit number at epoch: 92634

The dashed part of the orbit path shows where the satellite is in the earth's shadow,  

DLR